TimeEST,TemperatureF,Dew PointF,Humidity,Sea Level PressureIn,VisibilityMPH,Wind Direction,Wind SpeedMPH,Gust SpeedMPH,PrecipitationIn,Events,Conditions,WindDirDegrees,DateUTC
12:37 AM,30.2,21.2,69,30.05,10.0,South,15.0,20.7,N/A,,Clear,180,2013-02-19 05:37:00
12:57 AM,30.2,21.2,69,30.04,10.0,South,11.5,25.3,N/A,,Clear,170,2013-02-19 05:57:00
1:35 AM,30.2,21.2,69,30.02,10.0,SSE,10.4,19.6,N/A,,Mostly Cloudy,150,2013-02-19 06:35:00
1:55 AM,30.2,21.2,69,30.00,10.0,South,12.7,18.4,N/A,,Mostly Cloudy,170,2013-02-19 06:55:00
2:15 AM,30.2,21.2,69,29.98,10.0,SSE,13.8,20.7,N/A,,Overcast,160,2013-02-19 07:15:00
2:35 AM,30.2,21.2,69,29.98,10.0,South,13.8,20.7,N/A,,Overcast,170,2013-02-19 07:35:00
3:36 AM,28.4,21.2,74,29.94,10.0,SE,9.2,-,N/A,,Scattered Clouds,130,2013-02-19 08:36:00
3:55 AM,28.4,21.2,74,29.93,10.0,ESE,3.5,-,N/A,,Scattered Clouds,120,2013-02-19 08:55:00
4:15 AM,28.4,21.2,74,29.95,10.0,SSW,8.1,-,N/A,,Mostly Cloudy,200,2013-02-19 09:15:00
4:18 AM,28.4,21.2,74,29.95,10.0,SSW,11.5,17.3,N/A,,Mostly Cloudy,200,2013-02-19 09:18:00
4:35 AM,30.2,21.2,69,29.93,10.0,South,9.2,-,N/A,,Overcast,180,2013-02-19 09:35:00
5:15 AM,32.0,21.2,64,29.95,10.0,SW,15.0,24.2,N/A,,Mostly Cloudy,220,2013-02-19 10:15:00
5:35 AM,33.8,21.2,60,29.94,10.0,SW,18.4,29.9,N/A,,Overcast,220,2013-02-19 10:35:00
5:55 AM,30.2,26.6,86,29.92,1.5,SSW,12.7,26.5,N/A,Snow,Light Snow,210,2013-02-19 10:55:00
6:15 AM,28.4,26.6,93,29.92,1.8,SSW,16.1,25.3,N/A,Snow,Light Snow,210,2013-02-19 11:15:00
6:35 AM,28.4,28.4,100,29.91,2.5,SW,17.3,25.3,0.02,Snow,Light Snow,220,2013-02-19 11:35:00
6:55 AM,28.4,28.4,100,29.90,2.0,SSW,13.8,23.0,N/A,Snow,Light Snow,200,2013-02-19 11:55:00
7:15 AM,28.4,28.4,100,29.90,1.2,SSW,20.7,28.8,0.01,Snow,Light Snow,200,2013-02-19 12:15:00
7:35 AM,28.4,28.4,100,29.90,0.5,SSW,11.5,20.7,0.01,Snow,Light Snow,200,2013-02-19 12:35:00
7:55 AM,28.4,28.4,100,29.89,1.5,SSW,21.9,29.9,N/A,Snow,Light Snow,200,2013-02-19 12:55:00
8:15 AM,30.2,30.2,100,29.88,2.0,SSW,21.9,29.9,N/A,Snow,Light Snow,200,2013-02-19 13:15:00
8:35 AM,30.2,30.2,100,29.87,0.2,South,20.7,33.4,N/A,Snow,Light Snow,190,2013-02-19 13:35:00
8:55 AM,30.2,30.2,100,29.85,0.2,SSW,17.3,29.9,N/A,Snow,Light Snow,200,2013-02-19 13:55:00
9:15 AM,30.2,30.2,100,29.86,0.2,SSW,17.3,24.2,N/A,,Overcast,200,2013-02-19 14:15:00
9:35 AM,32.0,32.0,100,29.85,10.0,SSW,16.1,28.8,0.01,,Overcast,200,2013-02-19 14:35:00
9:55 AM,33.8,33.8,100,29.84,3.0,SSW,18.4,25.3,N/A,Snow,Light Snow,210,2013-02-19 14:55:00
10:15 AM,33.8,32.0,93,29.83,10.0,SSW,17.3,24.2,N/A,Snow,Light Snow,210,2013-02-19 15:15:00
10:35 AM,33.8,33.8,100,29.83,10.0,SSW,16.1,24.2,N/A,,Overcast,210,2013-02-19 15:35:00
10:55 AM,33.8,33.8,100,29.82,10.0,SW,13.8,23.0,0.01,,Overcast,220,2013-02-19 15:55:00
11:15 AM,33.8,33.8,100,29.82,10.0,SW,12.7,24.2,0.01,,Overcast,220,2013-02-19 16:15:00
11:35 AM,35.6,33.8,93,29.81,10.0,SW,17.3,24.2,0.02,,Overcast,220,2013-02-19 16:35:00
11:55 AM,35.6,33.8,93,29.80,10.0,SW,12.7,23.0,0.01,,Overcast,230,2013-02-19 16:55:00
12:15 PM,35.6,33.8,93,29.79,10.0,WSW,12.7,21.9,0.01,,Overcast,240,2013-02-19 17:15:00
12:35 PM,35.6,33.8,93,29.78,10.0,WSW,19.6,-,0.02,,Overcast,240,2013-02-19 17:35:00
12:55 PM,35.6,33.8,93,29.76,10.0,WSW,21.9,27.6,N/A,,Overcast,240,2013-02-19 17:55:00
1:15 PM,35.6,35.6,100,29.75,10.0,WSW,24.2,29.9,N/A,,Overcast,250,2013-02-19 18:15:00
1:35 PM,35.6,35.6,100,29.74,10.0,WSW,17.3,-,N/A,,Overcast,240,2013-02-19 18:35:00
1:55 PM,37.4,33.8,87,29.72,10.0,WSW,18.4,31.1,N/A,,Overcast,240,2013-02-19 18:55:00
2:15 PM,35.6,33.8,93,29.72,7.0,West,13.8,20.7,N/A,,Overcast,280,2013-02-19 19:15:00
2:35 PM,33.8,33.8,100,29.72,0.8,West,23.0,35.7,N/A,,Overcast,260,2013-02-19 19:35:00
2:55 PM,35.6,30.2,81,29.71,10.0,West,25.3,34.5,N/A,,Mostly Cloudy,260,2013-02-19 19:55:00
3:15 PM,35.6,30.2,81,29.72,10.0,West,20.7,35.7,N/A,,Overcast,270,2013-02-19 20:15:00
3:35 PM,35.6,30.2,81,29.71,10.0,West,23.0,36.8,N/A,,Overcast,270,2013-02-19 20:35:00
3:55 PM,35.6,28.4,75,29.73,10.0,West,27.6,32.2,N/A,,Mostly Cloudy,260,2013-02-19 20:55:00
4:15 PM,35.6,26.6,70,29.72,10.0,West,24.2,31.1,N/A,,Overcast,270,2013-02-19 21:15:00
4:35 PM,35.6,24.8,65,29.73,10.0,West,27.6,35.7,N/A,,Scattered Clouds,270,2013-02-19 21:35:00
4:55 PM,35.6,23.0,60,29.73,10.0,West,21.9,32.2,N/A,,Scattered Clouds,280,2013-02-19 21:55:00
5:15 PM,35.6,21.2,56,29.74,10.0,West,20.7,31.1,N/A,,Scattered Clouds,260,2013-02-19 22:15:00
5:35 PM,33.8,21.2,60,29.75,10.0,West,19.6,36.8,N/A,,Mostly Cloudy,270,2013-02-19 22:35:00
5:55 PM,33.8,19.4,56,29.76,10.0,West,17.3,26.5,N/A,,Mostly Cloudy,280,2013-02-19 22:55:00
6:15 PM,33.8,19.4,56,29.77,10.0,West,20.7,31.1,N/A,,Mostly Cloudy,280,2013-02-19 23:15:00
7:35 PM,30.2,17.6,60,29.80,10.0,West,17.3,28.8,N/A,,Scattered Clouds,280,2013-02-20 00:35:00
7:55 PM,30.2,17.6,60,29.79,10.0,West,24.2,34.5,N/A,,Mostly Cloudy,280,2013-02-20 00:55:00
8:15 PM,28.4,15.8,59,29.79,10.0,West,26.5,36.8,N/A,,Scattered Clouds,270,2013-02-20 01:15:00
8:35 PM,28.4,15.8,59,29.81,10.0,West,20.7,40.3,N/A,,Scattered Clouds,280,2013-02-20 01:35:00
8:55 PM,28.4,14.0,55,29.81,10.0,West,24.2,33.4,N/A,,Scattered Clouds,280,2013-02-20 01:55:00
9:15 PM,26.6,12.2,55,29.82,10.0,West,26.5,35.7,N/A,,Scattered Clouds,270,2013-02-20 02:15:00
9:35 PM,26.6,12.2,55,29.82,10.0,West,26.5,36.8,N/A,,Mostly Cloudy,270,2013-02-20 02:35:00
9:55 PM,26.6,12.2,55,29.83,10.0,West,24.2,38.0,N/A,,Mostly Cloudy,280,2013-02-20 02:55:00
10:15 PM,26.6,12.2,55,29.83,10.0,West,18.4,25.3,N/A,,Overcast,270,2013-02-20 03:15:00
10:35 PM,24.8,12.2,59,29.83,10.0,West,20.7,33.4,N/A,,Mostly Cloudy,280,2013-02-20 03:35:00
10:55 PM,24.8,12.2,59,29.82,10.0,West,23.0,42.6,N/A,,Overcast,270,2013-02-20 03:55:00
11:15 PM,24.8,12.2,59,29.82,10.0,West,19.6,33.4,N/A,,Overcast,280,2013-02-20 04:15:00
11:35 PM,24.8,12.2,59,29.81,10.0,West,26.5,38.0,N/A,,Mostly Cloudy,280,2013-02-20 04:35:00
11:55 PM,23.0,12.2,63,29.81,10.0,West,24.2,34.5,N/A,,Mostly Cloudy,280,2013-02-20 04:55:00